Lubbock, TX

2:57 AM CDT on September 26, 2017 (GMT -0500)
Lubbock International

Weather History for KLBB - March, 2013

Change the Weather History Date:

Friday, March 15, 2013

  Actual Average Record
Temperature  
Mean Temperature 65 °F 52 °F  
Max Temperature 88 °F 66 °F 88 °F (2013)
Min Temperature 41 °F 37 °F 17 °F (1947)
Degree Days  
Heating Degree Days 0 14  
Month to date heating degree days 187 231  
Since 1 July heating degree days 2717 2970  
Cooling Degree Days 0 0  
Month to date cooling degree days 1 0  
Year to date cooling degree days 1 0  
Growing Degree Days 16 (Base 50)    
Moisture  
Dew Point 24 °F    
Average Humidity 34    
Maximum Humidity 62    
Minimum Humidity 6    
Precipitation  
Precipitation 0.00 in 0.03 in 1.75 in (2010)
Month to date precipitation 0.00 0.49  
Year to date precipitation 2.23 1.89  
Snow  
Snow 0.00 in 0.00 in 8.30 in (1969)
Month to date snowfall 0.0 0.3  
Since 1 July snowfall 3.7 7.7  
Snow Depth 0.00 in    
Sea Level Pressure  
Sea Level Pressure 29.91 in    
Wind  
Wind Speed 12 mph (WSW)    
Max Wind Speed 25 mph    
Max Gust Speed 49 mph    
Visibility 10 miles    
Events      
T = Trace of Precipitation, MM = Missing Value Source: NWS Daily Summary

Daily Weather History Graph

Daily Weather History Graph

Search for Another Location

Airport or City:

Trip Planner

Search our weather history database for the weather conditions in past years. The results will help you decide how hot, cold, wet, or windy it might be!

Date:

Astronomy

Mar. 15, 2013 Rise Set
Actual Time 7:57 AM CDT 7:55 PM CDT
Civil Twilight 7:32 AM CDT 8:20 PM CDT
Nautical Twilight 7:03 AM CDT 8:49 PM CDT
Astronomical Twilight 6:34 AM CDT 9:18 PM CDT
Moon 10:01 AM CDT (3/15) 11:57 PM CDT (3/15)
Length of Visible Light 12h 47m
Length of Day
11h 58m
Waxing Crescent, 15% of the Moon is Illuminated
Mar 15
Waxing Crescent
Mar 19
First Quarter
Mar 27
Full
Apr 2
Last Quarter
Apr 10
New

Hourly Weather History & Observations

Time (CDT) Temp. Windchill Dew Point Humidity Pressure Visibility Wind Dir Wind Speed Gust Speed Precip Events Conditions
12:53 AM 59.0 °F - 27.0 °F 29% 30.05 in 10.0 mi South 3.5 mph - N/A   Clear
1:53 AM 60.8 °F - 30.2 °F 31% 30.15 in 10.0 mi SSW 16.1 mph - N/A   Clear
2:53 AM 57.9 °F - 30.9 °F 36% 30.02 in 10.0 mi SW 13.8 mph - N/A   Clear
3:53 AM 53.6 °F - 30.2 °F 41% 30.13 in 10.0 mi WSW 10.4 mph - N/A   Clear
4:53 AM 48.0 °F - 30.0 °F 50% 30.01 in 10.0 mi WSW 9.2 mph - N/A   Clear
5:53 AM 46.9 °F - 30.0 °F 52% 30.01 in 10.0 mi WSW 5.8 mph - N/A   Clear
6:53 AM 43.0 °F 38.8 °F 30.0 °F 60% 30.01 in 10.0 mi West 6.9 mph - N/A   Clear
7:53 AM 43.0 °F 38.8 °F 30.9 °F 62% 30.02 in 10.0 mi West 6.9 mph - N/A   Clear
8:53 AM 48.9 °F - 33.1 °F 54% 30.02 in 10.0 mi West 8.1 mph - N/A   Clear
9:53 AM 57.0 °F - 35.1 °F 44% 30.00 in 10.0 mi WSW 16.1 mph - N/A   Clear
10:53 AM 66.9 °F - 35.1 °F 31% 29.99 in 10.0 mi WSW 11.5 mph - N/A   Clear
11:53 AM 75.9 °F - 30.0 °F 19% 29.94 in 10.0 mi WSW 13.8 mph - N/A   Partly Cloudy
12:53 PM 81.0 °F - 24.1 °F 12% 29.90 in 10.0 mi SSW 15.0 mph 25.3 mph N/A   Partly Cloudy
1:53 PM 84.9 °F - 21.0 °F 10% 29.86 in 10.0 mi SW 18.4 mph 25.3 mph N/A   Partly Cloudy
2:53 PM 87.1 °F - 19.0 °F 8% 29.81 in 10.0 mi West 16.1 mph 36.8 mph N/A   Scattered Clouds
3:53 PM 87.1 °F - 16.0 °F 7% 29.78 in 10.0 mi WSW 21.9 mph 27.6 mph N/A   Mostly Cloudy
4:53 PM 87.1 °F - 16.0 °F 7% 29.75 in 10.0 mi SW 16.1 mph 23.0 mph N/A   Mostly Cloudy
5:53 PM 86.0 °F - 12.0 °F 6% 29.75 in 10.0 mi West 15.0 mph - N/A   Mostly Cloudy
6:53 PM 82.9 °F - 14.0 °F 8% 29.75 in 10.0 mi West 11.5 mph - N/A   Mostly Cloudy
7:53 PM 75.0 °F - 16.0 °F 11% 29.76 in 10.0 mi SW 8.1 mph - N/A   Mostly Cloudy
8:53 PM 70.0 °F - 17.1 °F 13% 29.76 in 10.0 mi SSW 8.1 mph - N/A   Scattered Clouds
9:53 PM 66.0 °F - 18.0 °F 16% 29.75 in 10.0 mi SW 5.8 mph - N/A   Scattered Clouds
10:53 PM 64.0 °F - 19.9 °F 18% 29.74 in 10.0 mi SW 9.2 mph - N/A   Mostly Cloudy
11:53 PM 66.0 °F - 17.1 °F 15% 29.72 in 10.0 mi SW 16.1 mph 21.9 mph N/A   Mostly Cloudy